Location: Halagerlille
(55.3308°N, 11.5075°E)
Time: 10:47:31
(UTC+00:00)

Daily predictions for brighter satellites

Satellite Brightness Start Highest point End
(mag) Time Altitude Azimuth Time Altitude Azimuth Time Altitude Azimuth
Cosmos 2322 Rocket 3.0 19:28:29 10° NNW 19:33:52 41° NE 19:39:15 10° ESE
Cosmos 1867 4.4 19:29:18 10° S 19:33:57 30° ESE 19:38:38 10° ENE
IRIDIUM 104 4.4 19:28:49 10° S 19:34:04 89° E 19:39:19 10° N
X-37B 2.8 19:34:35 10° SSW 19:35:57 12° S 19:37:21 10° SE
Cosmos 1184 Rocket 3.9 19:35:54 10° SSE 19:38:43 26° E 19:41:32 10° NE
Intercosmos 25 4.0 19:34:45 10° NNW 19:39:26 60° W 19:42:48 10° S
ERS-1 Rocket 3.7 19:36:55 10° SE 19:41:32 38° ENE 19:46:10 10° N
Cosmos 1666 Rocket 3.7 19:37:41 10° S 19:41:54 56° E 19:46:10 10° NNE
Cosmos 2123 Rocket 4.0 19:36:20 10° N 19:42:35 78° ENE 19:48:51 10° SSE
Cosmos 2360 Rocket 3.4 19:40:39 10° NNW 19:45:48 33° NE 19:50:54 10° E
Cosmos 468 Rocket 4.3 19:40:41 10° NNW 19:45:57 57° NE 19:51:10 10° SE
Resurs 1-3 4.5 19:42:40 10° S 19:46:56 50° W 19:51:14 10° NNW
SPOT 5 3.6 19:43:20 10° SE 19:47:14 33° ENE 19:51:13 10° N
Cosmos 44 3.8 19:44:20 10° NW 19:49:01 55° NE 19:53:59 10° ESE
Cosmos 1862 4.1 19:46:17 10° SSW 19:50:18 58° WNW 19:54:21 10° N
ERBS 2.4 19:48:33 10° W 19:51:52 76° NNW 19:55:12 10° ENE
deb Kosmos-1763 4.5 19:48:37 10° S 19:52:02 40° ESE 19:55:30 10° NE
Cosmos 2239 Rocket 4.5 19:46:19 10° S 19:52:28 83° E 19:58:40 10° NNE
ATLAS 5 CENTAUR R/B 4.5 19:48:59 10° WNW 19:53:01 20° WSW 19:57:26 10° SSW
Cosmos 1805 Rocket 4.1 19:48:47 10° SSW 19:53:12 66° WNW 19:57:41 10° N
Cosmos 1980 Rocket 2.6 19:49:18 10° NW 19:54:56 62° WSW 20:00:29 10° SSE
Genesis I 4.4 19:52:56 10° WNW 19:56:30 34° SW 20:00:01 10° SSE
CZ-2C R/B 3.8 19:52:30 10° NNE 19:57:11 89° WNW 20:01:44 10° SSW
Cosmos 1703 Rocket 4.3 19:54:17 10° N 19:58:24 38° ENE 20:02:17 11° SE
Cosmos 1605 Rocket 4.3 19:52:53 10° SSE 19:58:41 48° E 20:04:29 10° NNE
USA 234 3.4 19:52:55 10° ESE 19:59:28 73° SSW 20:06:01 10° WNW
ATLAS 5 CENTAUR R/B 1.8 19:57:32 10° NW 19:59:34 47° NNE 20:03:19 10° ESE
Cosmos 1954 Rocket 4.3 19:58:03 10° S 20:03:09 48° ESE 20:08:17 10° NE
ATLAS 3B R/B 4.3 20:02:23 10° ESE 20:03:38 11° ESE 20:04:54 10° E
Cosmos 1437 Rocket 3.4 20:01:17 10° N 20:04:55 40° ENE 20:08:06 13° SE
Spot 2 Rocket 3.5 20:00:39 10° SSE 20:05:46 88° ENE 20:10:55 10° NNW
Okean 1-7 3.7 20:02:25 10° N 20:06:33 40° ENE 20:10:12 12° SE
Landsat 7 3.9 20:01:46 10° SSE 20:06:33 89° ENE 20:11:21 10° NNW
IGS 5A 3.5 20:02:29 10° SSE 20:06:38 90° SSW 20:10:49 10° NNW
Cosmos 1697 Rocket 4.2 20:03:59 10° NW 20:08:53 31° WSW 20:13:44 10° SSW
BREEZE-M DEB (TANK) 3.2 20:08:06 10° WSW 20:10:10 21° S 20:11:05 16° SSE
SWAS 4.4 20:07:07 10° SSW 20:11:27 85° SE 20:15:49 10° NE
Cosmos 2237 Rocket 4.4 20:08:07 10° NNW 20:12:06 19° NNE 20:16:03 10° ENE
Cosmos 1833 Rocket 2.8 20:06:29 10° SSW 20:12:07 87° WNW 20:17:49 10° NNE
Cosmos 1633 Rocket 3.1 20:08:01 10° S 20:12:27 88° E 20:16:54 10° NNE
Okean 1 3.5 20:08:29 10° N 20:12:31 62° ENE 20:16:12 12° SSE
Cosmos 405 Rocket 3.3 20:09:22 10° SSE 20:12:45 35° E 20:16:13 10° NNE
Cosmos 2242 Rocket 3.7 20:08:25 10° N 20:12:52 65° ENE 20:17:00 11° SSE
Cosmos 407 Rocket 3.7 20:10:15 10° SSW 20:15:35 81° WNW 20:20:53 10° NNE
Cosmos 1190 Rocket 4.0 20:10:23 10° SSW 20:15:41 87° ESE 20:21:03 10° NNE
Cosmos 2333 Rocket 3.7 20:11:07 10° NNW 20:16:08 29° NNE 20:21:08 10° E
CZ-4B DEB 4.5 20:13:42 13° SSE 20:16:33 61° ENE 20:19:51 10° N
USA 238 DEB 4.0 20:10:34 10° SSW 20:16:46 43° ESE 20:23:15 10° NE
Meteor 1-19 Rocket 4.2 20:11:20 10° N 20:16:46 68° ENE 20:21:50 12° SSE
USA 238 4.0 20:10:42 10° SSW 20:16:53 43° ESE 20:23:21 10° NE
OPS 6432 4.5 20:19:43 10° SSW 20:23:25 50° SE 20:26:26 10° ENE
Cosmos 1515 3.8 20:22:47 10° N 20:26:37 61° ENE 20:29:34 16° SSE
Cosmos 1763 Rocket 3.6 20:21:53 10° NNW 20:27:15 89° WSW 20:31:50 14° SSE
Cosmos 921 Rocket 3.6 20:25:40 10° NNW 20:29:48 51° WSW 20:33:45 11° S
SL-4 R/B 2.3 20:26:27 10° SW 20:30:04 37° SSE 20:33:16 11° E
Meteor 1-4 Rocket 4.4 20:27:56 10° NW 20:30:54 26° W 20:33:50 10° SSW
Cosmos 1140 Rocket 3.7 20:27:33 10° SSW 20:32:48 76° WNW 20:38:06 10° NNE
CENTAUR R/B 3.1 20:29:13 10° S 20:34:42 36° ESE 20:41:04 10° NE
Cosmos 1470 Rocket 3.5 20:33:47 10° S 20:38:12 89° WNW 20:42:36 10° NNE
Cosmos 1242 Rocket 4.5 20:37:44 10° NNE 20:40:22 19° ENE 20:42:23 13° E
H-2A R/B 3.7 20:37:01 10° NNE 20:41:08 70° WNW 20:45:15 10° SSW
Meteor 2-4 Rocket 3.8 20:36:05 10° N 20:41:49 68° ENE 20:46:05 17° SSE
FALCON 9 DEB 3.6 20:41:23 10° SW 20:44:41 40° SSE 20:47:48 11° E
Resurs 01 Rocket 3.7 20:41:08 10° SW 20:44:43 24° W 20:48:20 10° NW
Lacrosse 5 2.5 20:41:31 10° WNW 20:46:18 42° SW 20:49:36 18° SSE
Meteor 1-18 Rocket 4.4 20:43:39 10° NNW 20:49:14 69° W 20:54:17 12° S
SWARM C 4.5 20:49:06 10° N 20:52:27 71° E 20:54:21 23° SSE
SPOT 1/Viking Rocket 4.2 20:47:23 10° S 20:52:28 51° W 20:57:36 10° NNW
SWARM A 4.2 20:49:11 10° N 20:52:32 78° E 20:54:32 22° S
GP-B 4.1 20:48:49 10° N 20:53:06 46° W 20:57:20 10° SSW
Terra 1.8 20:52:17 18° SSE 20:55:49 89° E 21:00:38 10° NNW
SL-16 R/B 2.4 20:52:23 10° NW 20:58:01 65° WSW 21:02:09 19° SSE
Meteor 1-25 Rocket 4.4 20:54:33 10° SSW 21:00:08 75° WNW 21:05:50 10° NNE
Cosmos 1238 Rocket 2.8 20:57:38 10° SSW 21:00:30 51° WNW 21:03:28 10° N
SL-27 R/B 2.9 21:01:26 28° SSE 21:02:31 38° ESE 21:05:38 10° NE
Cosmos 2219 Rocket 3.1 20:57:34 10° NNW 21:02:58 41° NE 21:07:36 14° ESE
Cosmos 2322 4.2 20:58:11 10° NNW 21:03:45 52° NE 21:07:56 17° ESE
USA 276 3.3 21:01:09 10° WSW 21:03:50 25° SSW 21:04:05 25° S
USA 267 3.3 20:58:02 10° ENE 21:04:31 59° SSE 21:10:57 10° SW
NOSS 3-2 (A) 3.4 21:03:22 10° SW 21:09:14 74° SE 21:16:05 10° NE
Cosmos 1850 Rocket 4.0 21:04:58 10° SSW 21:10:14 68° ESE 21:15:29 10° NNE
X-37B 3.2 21:10:22 10° SW 21:10:24 10° SW 21:10:24 10° SW
Cosmos 540 Rocket 3.5 21:06:40 10° NNW 21:11:51 76° WSW 21:15:09 23° SSE
Cosmos 2082 Rocket 2.8 21:06:26 10° SW 21:12:04 59° NW 21:17:41 10° NNE
Cosmos 1867 3.7 21:11:42 10° SW 21:17:10 77° NW 21:22:40 10° NE
NOSS 3-2 (C) 3.5 21:11:28 10° SSW 21:17:13 60° SE 21:23:53 10° NE
Cosmos 2322 Rocket 2.6 21:12:36 10° NW 21:18:11 57° WSW 21:21:53 21° S
Cosmos 1933 Rocket 4.3 21:14:53 10° SSW 21:19:13 54° WNW 21:23:37 10° N
ERS-1 Rocket 3.9 21:16:10 13° SSW 21:20:19 43° W 21:25:08 10° NNW
Cosmos 2237 4.2 21:14:52 10° NW 21:20:37 80° WSW 21:24:08 24° SSE
Lacrosse 4 Rocket 3.3 21:21:47 15° E 21:21:47 15° E 21:23:38 10° ENE
Cosmos 841 Rocket 3.7 21:16:51 10° NNW 21:22:01 63° WSW 21:25:15 23° S
SL-16 R/B 4.5 21:20:29 10° NNW 21:24:44 21° NNE 21:28:58 10° ENE
SPOT 5 3.7 21:22:09 15° SSW 21:25:18 39° W 21:29:28 10° NNW
ERBS 2.5 21:25:01 10° WNW 21:28:20 68° N 21:30:33 19° E
Tsikada Rocket 4.2 21:22:43 10° N 21:29:05 65° ENE 21:32:57 25° SSE
Cosmos 1869 Rocket 3.5 21:27:02 21° S 21:29:56 89° ESE 21:34:27 10° NNE
Cosmos 44 4.0 21:25:39 10° NW 21:30:15 42° SW 21:32:46 24° S
Cosmos 2360 Rocket 2.2 21:24:39 10° NW 21:30:21 76° WSW 21:33:38 26° SSE
Okean 3 3.6 21:30:52 10° NNW 21:35:09 71° W 21:37:20 28° S
Cosmos 1500 3.1 21:34:04 26° SSW 21:36:03 81° WNW 21:39:50 10° N
Cosmos 44 Rocket 3.7 21:32:07 10° NW 21:37:02 62° NE 21:40:26 20° ESE
COSMOS 2487 3.9 21:38:11 22° E 21:38:11 22° E 21:40:36 10° NE
Cosmos 1814 Rocket 4.4 21:36:40 10° NW 21:41:44 54° WSW 21:44:35 25° S
COSMOS 2428 3.1 21:36:39 10° NNW 21:42:22 60° NE 21:46:03 22° ESE
USA 234 4.2 21:39:52 21° S 21:43:11 33° SW 21:48:59 10° WNW
Cosmos 2100 Rocket 4.0 21:38:31 16° SSW 21:43:33 81° WNW 21:49:45 10° N
Cosmos 1674 Rocket 3.7 21:39:14 10° N 21:43:33 60° ENE 21:45:18 33° SE
Cosmos 1741 Rocket 4.2 21:41:23 10° SW 21:46:39 74° WNW 21:51:59 10° NNE
Cosmos 1666 2.6 21:46:13 41° SSE 21:47:21 65° E 21:51:06 10° NNE
ATLAS 3B R/B 2.9 21:48:52 23° S 21:52:39 45° SE 21:58:56 10° NE
Cosmos 2173 Rocket 4.1 21:49:15 17° SSW 21:54:11 74° WNW 22:00:20 10° N
Iridium 4 Rocket 3.4 21:51:54 24° SSW 21:54:18 60° W 21:58:27 10° N
ALOS 2 3.1 21:53:11 29° SE 21:55:02 49° ENE 21:59:18 10° N
Meteor 1-11 Rocket 3.7 21:53:16 26° S 21:56:33 76° E 22:02:22 10° NNE
Cosmos 1743 3.8 21:56:20 28° ESE 21:56:58 30° E 22:00:24 10° NNE
Cosmos 2237 Rocket 3.3 21:52:25 10° NNW 21:57:46 40° NE 22:02:20 14° ESE
Cosmos 1271 Rocket 3.0 21:56:45 10° N 22:00:29 56° ENE 22:01:32 40° SE
Cosmos 2333 Rocket 2.2 21:55:23 10° NW 22:01:13 86° ENE 22:04:15 30° SE
Cosmos 1725 Rocket 4.0 21:58:44 26° S 22:02:34 80° E 22:08:55 10° NNE
Cosmos 1733 Rocket 3.0 22:02:22 38° S 22:03:57 70° E 22:08:23 10° NNE
SL-08 R/B 4.4 22:03:28 26° S 22:07:07 86° ESE 22:13:16 10° NNE
USA 238 DEB 4.0 22:00:44 10° WSW 22:07:28 72° NNW 22:14:33 10° NE
USA 238 3.9 22:00:51 10° WSW 22:07:34 72° NNW 22:14:39 10° NE
Cosmos 1378 3.0 22:05:17 10° N 22:09:04 78° E 22:09:56 50° SSE
SL-4 R/B 2.1 22:05:42 10° WSW 22:08:50 43° SSW 22:08:50 43° SSW
Geosat 4.3 22:08:13 32° S 22:10:21 55° WSW 22:15:19 10° NW
Spot 4 3.9 22:08:59 34° S 22:11:02 73° WSW 22:15:54 10° NNW
Cosmos 1066 Rocket 4.3 22:05:38 10° NNW 22:11:22 71° W 22:14:09 31° S
Cosmos 1459 Rocket 4.5 22:06:54 15° SSW 22:12:12 59° WNW 22:18:32 10° N
Cosmos 2016 Rocket 4.1 22:08:57 22° SSW 22:13:17 78° WNW 22:19:43 10° N
Cosmos 1242 Rocket 3.0 22:12:00 10° NNW 22:15:33 53° W 22:16:23 42° SW
FALCON 9 DEB 3.3 22:18:01 10° W 22:21:04 54° SW 22:21:04 54° SW
Cosmos 1536 2.9 22:21:12 37° SSW 22:22:38 69° WNW 22:26:38 10° N
Cosmos 2084 Rocket 3.4 22:19:23 12° SW 22:23:18 85° NW 22:27:41 10° NE
CENTAUR R/B 2.8 22:18:29 10° WSW 22:24:49 79° NW 22:32:27 10° NE
Cosmos 1356 4.0 22:24:33 37° SW 22:25:34 52° WNW 22:28:56 10° N
Okean 2 3.6 22:23:49 10° N 22:27:55 61° ENE 22:29:02 43° SE
Lacrosse 5 4.0 22:26:23 10° WSW 22:28:09 12° WSW 22:28:46 12° SW
Cosmos 2061 Rocket 4.3 22:24:03 20° SSW 22:28:22 64° WNW 22:34:33 10° N
Cosmos 773 Rocket 4.5 22:24:19 10° NNW 22:29:23 53° NE 22:32:08 26° ESE
MOS 1-B Rocket 3.9 22:27:28 10° NNE 22:33:12 75° WNW 22:36:38 24° SSW
Cosmos 1908 Rocket 3.7 22:33:08 43° SSE 22:34:14 58° E 22:38:32 10° NNE
Terra 4.0 22:31:14 10° SW 22:34:17 17° W 22:37:19 10° NW
Cosmos 1707 4.2 22:32:58 10° N 22:36:26 29° ENE 22:37:45 23° ESE
Cosmos 1378 Rocket 3.9 22:33:06 10° NNW 22:37:30 58° W 22:38:54 39° SSW
Cosmos 1544 3.5 22:38:18 45° ESE 22:38:36 46° E 22:42:09 10° NNE
Cosmos 968 Rocket 3.6 22:38:31 39° S 22:40:10 58° ESE 22:45:14 10° NNE
Cosmos 2227 Rocket 4.2 22:38:55 12° ESE 22:40:17 13° E 22:42:53 10° ENE
SL-16 R/B 4.4 22:38:14 10° WNW 22:41:04 14° W 22:43:53 10° SW
BREEZE-M DEB (TANK) 4.4 22:37:30 10° W 22:42:03 46° S 22:58:44 10° SE
Helios 1A 3.3 22:41:02 38° SE 22:42:23 58° ENE 22:46:34 10° N
Cosmos 1842 3.2 22:40:22 10° N 22:44:20 76° ENE 22:45:08 54° SSE
Cosmos 2233 Rocket 4.0 22:42:20 29° SSW 22:45:49 81° WNW 22:52:12 10° N
Cosmos 2219 Rocket 2.4 22:41:36 10° NW 22:47:10 56° WSW 22:49:17 36° S
USA 267 3.3 22:41:14 10° ENE 22:47:48 84° NNW 22:54:23 10° W
Cosmos 2322 4.4 22:42:35 10° NW 22:47:52 41° WSW 22:49:51 31° SSW
Cosmos 2344 4.2 22:39:19 10° NW 22:48:06 86° NE 23:00:17 10° SE
Cosmos 1464 Rocket 4.3 22:48:06 31° SSE 22:50:50 52° E 22:56:48 10° NNE
Cosmos 1975 3.1 22:51:13 47° SE 22:51:54 54° E 22:55:52 10° NNE
EO 1 Del DPAF 3.3 22:49:32 10° N 22:53:17 68° WNW 22:54:13 46° SW
Cosmos 1833 4.2 22:50:24 25° SW 22:53:49 84° NW 22:59:32 10° NNE
Cosmos 1975 Rocket 3.0 22:50:27 10° N 22:54:58 83° ENE 22:56:17 46° SSE
Lacrosse 4 Rocket 1.3 22:58:03 46° SSW 22:59:16 84° SE 23:03:28 10° NE
Thor Agena Rocket 3.8 22:54:19 10° NNE 22:59:20 65° WNW 23:01:58 28° SW
Meteor 1-21 4.2 22:54:29 10° NNW 23:00:21 89° WSW 23:02:50 36° SSE
NOSS 3-2 (A) 4.5 22:54:29 10° W 23:00:32 51° NNW 23:07:36 10° ENE
Cosmos 2322 Rocket 4.4 22:58:56 10° WNW 23:01:03 12° W 23:03:10 10° WSW
Nadezhda 4 Rocket 4.2 22:55:05 10° N 23:01:23 66° ENE 23:04:34 30° SSE
ERBS 3.4 23:01:22 10° WNW 23:03:27 33° W 23:03:27 33° W
Cosmos 1354 Rocket 4.2 23:03:08 39° SSE 23:04:51 57° ESE 23:10:05 10° NNE
NOSS 3-2 (C) 4.2 23:02:14 10° WSW 23:08:17 57° NNW 23:15:22 10° NE
SL-16 R/B 3.0 23:04:42 10° NNW 23:10:15 49° NE 23:15:15 12° ESE
Okean 2 Rocket 4.1 23:09:23 30° ESE 23:10:34 35° E 23:14:40 10° NNE
COSMOS 2487 3.5 23:11:39 31° W 23:12:42 40° WNW 23:16:00 10° NNE
Cosmos 2360 Rocket 4.0 23:09:54 10° WNW 23:13:27 17° W 23:15:23 15° WSW
Nimbus 7 Rocket 4.4 23:10:01 10° NNE 23:15:53 78° WNW 23:18:54 31° SSW
SL-24 DEB 4.3 23:11:46 10° N 23:16:35 74° W 23:18:11 41° SSW
Cosmos 44 Rocket 4.0 23:13:53 10° WNW 23:18:25 36° WSW 23:19:07 34° SW
Cosmos 1092 Rocket 4.4 23:12:37 10° N 23:18:49 58° ENE 23:22:17 26° SE
Cosmos 2034 Rocket 4.2 23:18:30 33° SSE 23:21:21 62° E 23:27:36 10° NNE
Cosmos 1072 Rocket 4.4 23:20:42 35° S 23:23:29 87° E 23:29:39 10° NNE
YAOGAN 11 4.2 23:23:17 46° S 23:24:37 73° WSW 23:29:13 10° NNW
Sich 1 Rocket 3.6 23:24:22 47° SSE 23:25:28 67° E 23:29:51 10° NNE
Cosmos 1025 Rocket 3.1 23:21:45 10° N 23:26:02 69° ENE 23:27:16 44° SE
COSMOS 2428 3.6 23:21:17 10° NW 23:26:26 35° WSW 23:28:02 30° SW
SJ 16-02 3.7 23:25:33 11° ESE 23:26:50 12° E 23:28:33 10° ENE
NOSS 0 Rocket 4.2 23:25:07 10° NW 23:31:09 51° WSW 23:33:28 35° SSW
Resurs 1-4 Rocket 4.2 23:28:13 10° NE 23:31:27 16° E 23:34:26 11° ESE
ALOS 2 3.9 23:30:35 24° WSW 23:31:37 27° W 23:35:21 10° NW
Cosmos 1743 4.0 23:31:25 26° WSW 23:32:42 33° WNW 23:36:17 10° N
Cosmos 1980 3.8 23:27:43 10° NW 23:33:20 63° WSW 23:35:28 37° S
Cosmos 2297 Rocket 3.1 23:31:44 28° SE 23:33:29 34° ESE 23:38:32 10° NE
Meteor 2-9 Rocket 4.2 23:31:22 36° SSW 23:33:47 85° WNW 23:39:36 10° NNE
Helios 1B rocket 3.3 23:31:03 10° NNE 23:34:51 36° E 23:35:44 32° SE
DNEPR-1 R/B 4.1 23:30:43 10° NW 23:36:55 72° SW 23:39:12 34° SSE
SL-16 R/B 3.5 23:35:17 12° SE 23:40:50 45° ENE 23:46:44 10° N
Cosmos 2219 3.8 23:39:48 33° SSE 23:41:40 43° ESE 23:46:57 10° NE
Cosmos 2237 Rocket 2.3 23:36:33 10° NW 23:42:06 58° WSW 23:44:07 37° S
Cosmos 1503 Rocket 4.1 23:39:59 33° SW 23:42:29 76° WNW 23:47:54 10° NNE
Cosmos 2151 Rocket 4.1 23:41:25 37° SE 23:42:39 48° E 23:46:54 10° NNE
ATLAS 3B R/B 2.9 23:36:35 10° WSW 23:43:09 68° NNW 23:49:54 10° NE
PSLV R/B 3.9 23:40:02 10° NNE 23:44:42 66° ESE 23:46:13 41° S
Cosmos 2333 Rocket 3.6 23:40:26 10° NW 23:44:51 23° WSW 23:46:14 21° WSW
In-Cosmos 22 4.1 23:40:48 10° NNW 23:46:27 88° WSW 23:48:50 36° S
Cosmos 923 Rocket 4.3 23:41:41 10° NNW 23:47:02 66° ENE 23:50:26 22° SE
Cosmos 1437 3.0 23:47:33 10° NNW 23:50:09 53° WNW 23:50:09 53° WNW
